Tracking 19854 objects as of 22-Sep-2019
HD Live streaming from Space Station
objects crossing your sky now

LEMUR 2 ROBMOORE

Track LEMUR 2 ROBMOORE now!
10-day predictions
LEMUR 2 ROBMOORE is classified as:


NORAD ID: 42754
Int'l Code: 2017-019D
Perigee: 474.3 km
Apogee: 488.5 km
Inclination: 51.6 °
Period: 94.1 minutes
Semi major axis: 6852 km
RCS: Unknown
Launch date: April 18, 2017
Source: United States (US)
Launch site: AIR FORCE EASTERN TEST RANGE (AFETR)
aabbcc
Your satellite tracking list
Your tracking list is empty




NASA's NSSDC Master Catalog

Two Line Element Set (TLE):
1 42754U 17019D   19264.80821673  .00000725  00000-0  36441-4 0  9993
2 42754  51.6420  32.4638 0010320  65.1015 295.1037 15.30514470127751
Source of the keplerian elements: AFSPC